[[{"header":{"parameterUnit":"m.s-1","parameterCategory":1,"la1":30.2991,"la2":30.254,"lo1":-89.0895,"lo2":-89.0444,"dy":0.0017,"dx":0.0017,"nx":28,"ny":28,"refTime":"2025-06-02T09:00:00:Z","depth":0,"parameterNumber":2,"parameterNumberName":"U-component_of_WINDS"},"data":[0,0,0,0,0,0,0,0,0,0,0,0,0,0,0,0,0,0,0,0,0,0,0,0,0,0,0,0,0,0,0,0,0,0,0,0,0,0,0,0,0,0,0,0,0,0,0,0,0,0,0,0,0,0,0,0,0,0,0.7087,0.7087,0,0.7116,0.7116,0.7116,0.7123,0.7123,0.7123,0.7123,0.7152,0.7152,0.7153,0,0,0,0,0,0,0,0,0,0,0,0,0,0.7034,0.7035,0.7086,0.7087,0.7087,0.7116,0.7116,0.7116,0.7123,0.7123,0.7123,0.7123,0.7151,0.7152,0.7153,0,0,0,0,0,0,0,0,0,0,0,0,0,0.7059,0.7035,0.7086,0.7094,0.7095,0.7115,0.7116,0.7116,0.7124,0.7123,0.7123,0.7123,0.7151,0.7152,0.7154,0.7168,0,0,0.7158,0.7159,0,0,0,0,0,0,0,0,0.7058,0.7061,0.7093,0.7094,0.7095,0.7116,0.7108,0.7134,0.7124,0.7113,0.7123,0.7123,0.714,0.7142,0.7148,0.7169,0.717,0.7158,0.7159,0.716,0.716,0,0,0,0,0,0,0,0.7056,0.706,0.7098,0.7093,0.7094,0.7095,0.7099,0.7113,0.7127,0.7114,0.7114,0.7118,0.714,0.7147,0.7149,0.7171,0.7158,0.7159,0.716,0.7161,0.7202,0.7202,0,0,0,0,0,0,0.7053,0.7059,0.7097,0.7099,0.7075,0.7096,0.71,0.7109,0.7127,0.713,0.7118,0.7118,0.7144,0.7147,0.715,0.7166,0.716,0.7161,0.7162,0.7202,0.7202,0.7202,0,0,0,0,0,0,0.7052,0.7057,0.7096,0.7079,0.7084,0.7098,0.7108,0.711,0.7116,0.713,0.7133,0.7122,0.7144,0.7148,0.7163,0.7167,0.7161,0.7163,0.7202,0.7202,0.7202,0.7199,0,0,0,0,0,0,0.7051,0.7056,0.7063,0.7079,0.7085,0.7109,0.7108,0.7111,0.7119,0.7119,0.7135,0.7137,0.7144,0.7161,0.7164,0.7169,0.7164,0.7201,0.7202,0.7202,0.7199,0.72,0.72,0,0,0,0,0,0.7049,0.7061,0.7063,0.7068,0.7093,0.711,0.7113,0.7121,0.7119,0.7125,0.7134,0.7137,0.7166,0.7162,0.7166,0.7171,0.7201,0.7202,0.7202,0.7199,0.72,0.72,0,0,0,0,0,0,0.7046,0.7064,0.7066,0.7084,0.7095,0.7111,0.7119,0.7122,0.7134,0.7133,0.7143,0.7146,0.716,0.7167,0.7162,0.7185,0.7183,0.7185,0.718,0.718,0.7181,0.7179,0.7165,0,0,0,0,0,0.7047,0.7059,0.7074,0.7089,0.7094,0.7105,0.7113,0.7118,0.713,0.7134,0.7144,0.7155,0.7166,0.7174,0.7185,0.72,0.7203,0.7205,0.7206,0.7206,0.7207,0.7213,0.7214,0.7204,0.7204,0.7204,0,0,0.705,0.7061,0.7069,0.7088,0.7097,0.7109,0.7109,0.7122,0.713,0.7136,0.7151,0.7158,0.717,0.7185,0.7191,0.7191,0.721,0.7207,0.7207,0.7208,0.7214,0.7215,0.7216,0.7205,0.7205,0.7205,0,0,0.7061,0.7072,0.7084,0.7093,0.7106,0.7113,0.7116,0.7131,0.7136,0.715,0.7154,0.7163,0.7183,0.7191,0.7198,0.7209,0.7212,0.7212,0.7215,0.7221,0.7222,0.7222,0.7225,0.7226,0.7213,0.7213,0.7213,0,0.7063,0.7082,0.709,0.7102,0.7109,0.7114,0.7126,0.7134,0.715,0.7155,0.7154,0.7178,0.7187,0.7202,0.7204,0.721,0.7212,0.7211,0.7221,0.7222,0.7222,0.7225,0.7226,0.7213,0.7213,0.7213,0.7213,0,0.7082,0.7095,0.7103,0.7118,0.7126,0.7138,0.7146,0.7154,0.7157,0.7164,0.7177,0.7188,0.72,0.7204,0.7208,0.7219,0.7218,0.7219,0.7218,0.7223,0.7226,0.7227,0.7213,0.7213,0.7213,0.7213,0,0,0.7094,0.7112,0.7115,0.712,0.7135,0.7144,0.7154,0.7167,0.7172,0.7182,0.7191,0.7206,0.7206,0.7214,0.7218,0.7224,0.723,0.7224,0.7224,0.7223,0.724,0.7239,0.7241,0.7231,0.7231,0.7232,0.7239,0,0.7106,0.7126,0.7132,0.7149,0.7159,0.7163,0.7172,0.718,0.7186,0.7195,0.7201,0.7211,0.7211,0.7216,0.7221,0.7228,0.7233,0.7227,0.7238,0.7238,0.7235,0.7242,0.7242,0.7248,0.724,0.724,0.7241,0,0.7123,0.7133,0.715,0.7161,0.7165,0.7174,0.7184,0.7193,0.7202,0.7205,0.7212,0.7216,0.7226,0.7224,0.7237,0.7232,0.7237,0.724,0.7241,0.7242,0.724,0.7243,0.7251,0.7252,0.7242,0.7242,0.7242,0,0.7128,0.7146,0.7158,0.7163,0.7176,0.7181,0.7187,0.7196,0.7202,0.7211,0.7214,0.7224,0.7229,0.7236,0.7242,0.724,0.7253,0.7252,0.7256,0.7256,0.7259,0.7258,0.7267,0.7262,0.7262,0.7262,0.7262,0,0.714,0.715,0.716,0.7167,0.7177,0.7184,0.7194,0.72,0.7207,0.7215,0.7219,0.7225,0.7233,0.724,0.7244,0.7253,0.7256,0.7258,0.7259,0.7258,0.7257,0.7261,0.726,0.7262,0.7262,0.7262,0.7262,0,0.7148,0.7155,0.7168,0.7178,0.7181,0.7188,0.7197,0.7203,0.7209,0.7218,0.722,0.7228,0.7237,0.7243,0.7254,0.7257,0.7266,0.7268,0.7263,0.7264,0.7267,0.7266,0.7278,0.7279,0.7274,0.7274,0.7274,0,0.7155,0.7163,0.7174,0.7179,0.7184,0.7193,0.7199,0.7205,0.721,0.722,0.7225,0.7234,0.7241,0.7255,0.7261,0.7269,0.727,0.7273,0.7271,0.7269,0.7269,0.7268,0.7269,0.7274,0.7274,0.7274,0.7274,0,0.7167,0.7169,0.7178,0.7187,0.7193,0.7201,0.7208,0.7212,0.7219,0.7225,0.7234,0.7239,0.725,0.7258,0.7267,0.7271,0.7273,0.7274,0.7275,0.7274,0.7271,0.7271,0.7264,0.7274,0.7274,0.7274,0.7274,0.7274,0.7174,0.718,0.7188,0.7196,0.7202,0.7209,0.7215,0.722,0.7228,0.7237,0.7239,0.7248,0.7255,0.7266,0.7271,0.7277,0.7277,0.7279,0.7279,0.728,0.7279,0.727,0.7279,0.7279,0.7279,0.7279,0.7279,0,0.7184,0.7189,0.7197,0.7207,0.7213,0.7214,0.7222,0.7227,0.7235,0.7241,0.7248,0.7257,0.7264,0.727,0.7278,0.7281,0.7282,0.7283,0.7283,0.7284,0.7279,0.7277,0.7282,0.7282,0.7282,0.7282,0.7282,0.7282,0.7191,0.72,0.7203,0.7215,0.722,0.7229,0.7233,0.7238,0.7243,0.7253,0.7259,0.7263,0.7269,0.7276,0.7283,0.7284,0.7287,0.7287,0.7288,0.7284,0.7284,0.7284,0.7282,0.7287,0.7287,0.7292,0.7292,0.7292]},{"header":{"parameterUnit":"m.s-1","parameterCategory":1,"la1":30.2991,"la2":30.254,"lo1":-89.0895,"lo2":-89.0444,"dy":0.0017,"dx":0.0017,"nx":28,"ny":28,"refTime":"2025-06-02T09:00:00:Z","depth":0,"parameterNumber":3,"parameterNumberName":"V-component_of_WINDS"},"data":[0,0,0,0,0,0,0,0,0,0,0,0,0,0,0,0,0,0,0,0,0,0,0,0,0,0,0,0,0,0,0,0,0,0,0,0,0,0,0,0,0,0,0,0,0,0,0,0,0,0,0,0,0,0,0,0,0,0,4.2017,4.2016,0,4.1996,4.1996,4.1996,4.1913,4.1911,4.1909,4.1907,4.1884,4.1886,4.1887,0,0,0,0,0,0,0,0,0,0,0,0,0,4.1979,4.1981,4.2017,4.2016,4.2016,4.1996,4.1996,4.1996,4.1913,4.1911,4.1908,4.1906,4.1884,4.1885,4.1887,0,0,0,0,0,0,0,0,0,0,0,0,0,4.1981,4.1981,4.2017,4.1972,4.1968,4.1996,4.1996,4.1996,4.1913,4.1911,4.1908,4.1905,4.1884,4.1885,4.1887,4.1956,0,0,4.1892,4.1893,0,0,0,0,0,0,0,0,4.1981,4.1983,4.1979,4.1976,4.1971,4.1954,4.1975,4.1982,4.1914,4.1934,4.1907,4.1904,4.191,4.1909,4.1912,4.1955,4.1954,4.1893,4.1894,4.1894,4.1895,0,0,0,0,0,0,0,4.1981,4.1983,4.2008,4.1979,4.1974,4.1952,4.1949,4.1976,4.1938,4.1932,4.1926,4.1925,4.1907,4.191,4.1911,4.1953,4.1893,4.1894,4.1895,4.1896,4.2046,4.2049,0,0,0,0,0,0,4.1988,4.1983,4.2009,4.2008,4.1969,4.1955,4.1952,4.1962,4.1938,4.1931,4.1927,4.1921,4.1909,4.1909,4.1909,4.1985,4.1894,4.1896,4.1897,4.2044,4.2047,4.205,0,0,0,0,0,0,4.1987,4.1991,4.201,4.1994,4.1995,4.1959,4.1971,4.1963,4.1967,4.1934,4.1927,4.1938,4.1906,4.1907,4.1944,4.1983,4.1897,4.1899,4.204,4.2045,4.2049,4.2138,0,0,0,0,0,0,4.1987,4.1991,4.2018,4.1995,4.1996,4.2046,4.1974,4.1965,4.197,4.1962,4.1942,4.1936,4.1904,4.1942,4.1946,4.1984,4.19,4.2036,4.2042,4.2047,4.2131,4.2145,4.2157,0,0,0,0,0,4.1986,4.2045,4.202,4.2023,4.2029,4.2049,4.2049,4.2012,4.1974,4.1999,4.1978,4.1937,4.1978,4.1946,4.195,4.1989,4.2034,4.204,4.2047,4.2126,4.2142,4.2156,0,0,0,0,0,0,4.2074,4.2041,4.2013,4.2067,4.2061,4.2035,4.2066,4.2031,4.2036,4.2027,4.198,4.1976,4.2019,4.2008,4.1973,4.2052,4.1999,4.2006,4.2057,4.2073,4.2085,4.2086,4.1901,0,0,0,0,0,4.2099,4.2119,4.2089,4.214,4.2138,4.2103,4.211,4.2081,4.2073,4.207,4.2052,4.2045,4.2055,4.2064,4.2073,4.213,4.2122,4.2158,4.2171,4.2181,4.2188,4.2213,4.2228,4.2072,4.2072,4.2072,0,0,4.2153,4.2137,4.2153,4.2157,4.2149,4.2168,4.2101,4.2126,4.2139,4.2074,4.2107,4.2093,4.2081,4.2128,4.2147,4.212,4.2229,4.219,4.2198,4.2199,4.2221,4.2236,4.2249,4.2076,4.2076,4.2075,0,0,4.2259,4.2251,4.229,4.2283,4.2271,4.2247,4.2256,4.2235,4.2222,4.2255,4.2205,4.222,4.2241,4.2233,4.2233,4.2333,4.2294,4.2337,4.2402,4.2427,4.2439,4.245,4.2482,4.2495,4.2344,4.2344,4.2344,0,4.2326,4.2355,4.2314,4.2341,4.2342,4.2284,4.2321,4.2317,4.2309,4.231,4.228,4.2302,4.2291,4.2333,4.2357,4.2359,4.2366,4.2338,4.2441,4.2451,4.246,4.2491,4.2503,4.2349,4.2349,4.2348,4.2348,0,4.2436,4.2457,4.2489,4.2482,4.2488,4.252,4.2482,4.2492,4.2463,4.2441,4.2473,4.2457,4.2459,4.2467,4.2439,4.2504,4.2487,4.245,4.2395,4.2481,4.2508,4.252,4.2357,4.2355,4.2353,4.2352,0,0,4.2598,4.2566,4.2579,4.2573,4.2555,4.2569,4.2597,4.2599,4.2607,4.2603,4.2623,4.2641,4.2605,4.2604,4.2575,4.2597,4.2673,4.2557,4.2555,4.2576,4.2739,4.2765,4.2779,4.2648,4.265,4.2651,4.2739,0,4.2697,4.2744,4.2706,4.2759,4.2775,4.2718,4.2742,4.2732,4.2712,4.2722,4.2699,4.2711,4.2665,4.2663,4.2683,4.266,4.2705,4.2653,4.2663,4.2664,4.2666,4.2794,4.2823,4.2906,4.275,4.2751,4.2753,0,4.2819,4.2819,4.2873,4.2847,4.2853,4.2875,4.2872,4.2883,4.2869,4.2853,4.285,4.2813,4.2836,4.2784,4.2814,4.278,4.2781,4.277,4.2772,4.277,4.2712,4.2793,4.2932,4.2944,4.277,4.2769,4.2767,0,4.2927,4.2941,4.2974,4.2971,4.2944,4.296,4.2949,4.2933,4.2935,4.2932,4.2933,4.2933,4.2933,4.2933,4.2896,4.2862,4.2929,4.2874,4.2913,4.2914,4.2928,4.2928,4.3068,4.2934,4.2934,4.2934,4.2934,0,4.304,4.3074,4.3022,4.3042,4.3077,4.3034,4.307,4.3053,4.3038,4.3052,4.3004,4.3018,4.2969,4.2977,4.2949,4.2975,4.2977,4.2962,4.2953,4.2965,4.2966,4.2964,4.2956,4.2937,4.2937,4.2936,4.2935,0,4.3167,4.3133,4.3165,4.3135,4.3128,4.3156,4.3129,4.3145,4.3121,4.3139,4.3141,4.3103,4.311,4.3073,4.3074,4.3054,4.3094,4.3077,4.3099,4.3092,4.3132,4.3128,4.3273,4.3288,4.3149,4.315,4.3151,0,4.324,4.3264,4.3237,4.3242,4.3234,4.3245,4.3246,4.3203,4.3206,4.3191,4.3208,4.3211,4.3211,4.3224,4.3195,4.3195,4.3175,4.3226,4.3175,4.3184,4.3172,4.317,4.317,4.3236,4.3238,4.324,4.3241,0,4.3372,4.3353,4.3357,4.3355,4.3358,4.3355,4.3348,4.3355,4.3308,4.3314,4.332,4.332,4.3319,4.3321,4.3314,4.3301,4.3262,4.3257,4.3266,4.3276,4.3286,4.3278,4.3125,4.3254,4.3253,4.3252,4.3251,4.325,4.3471,4.3489,4.3471,4.3477,4.3467,4.3461,4.3473,4.345,4.3454,4.345,4.3424,4.3434,4.3417,4.3403,4.3393,4.3399,4.3375,4.3388,4.339,4.3394,4.3399,4.3288,4.3398,4.3398,4.3397,4.3397,4.3397,0,4.3598,4.3583,4.3588,4.3579,4.3583,4.3546,4.3536,4.3541,4.355,4.3538,4.3538,4.3543,4.3544,4.3515,4.3511,4.3521,4.3503,4.3522,4.3519,4.3516,4.3423,4.3415,4.3536,4.3536,4.3536,4.3536,4.3536,4.3536,4.3664,4.369,4.3669,4.369,4.3674,4.3683,4.368,4.3673,4.3662,4.367,4.367,4.3651,4.3631,4.3625,4.3623,4.3615,4.3614,4.3638,4.3623,4.3537,4.3523,4.351,4.3502,4.364,4.364,4.3715,4.3716,4.3716]}]]